Theta_e
284 283 283 283 284 284 284 284 285 280 279 281 282 283 283 282 281 281 280 280 283 284 286 287 289 291 292 293 294 295 296 297 298 299 300 301 303 304
283 282 282 282 282 283 283 282 282 283 280 280 281 282 281 280 280 279 279 279 280 282 284 286 288 289 290 291 292 293 294 295 296 297 298 299 300 301
281 281 281 281 281 281 281 281 281 280 280 277 279 279 278 278 278 278 279 279 280 281 283 285 287 287 288 289 290 291 292 292 293 294 295 296 297 298
280 280 280 280 279 280 280 279 279 279 278 277 275 276 276 277 277 277 277 278 279 280 283 285 285 285 286 287 288 288 289 289 290 290 291 293 294 295
281 280 279 279 278 278 278 277 277 277 277 276 275 275 275 276 277 277 278 279 279 281 282 282 283 284 285 286 287 287 287 287 288 288 289 290 291 292
281 280 279 278 278 277 276 276 276 275 275 274 273 273 274 276 276 276 276 278 278 280 280 281 282 282 283 284 284 284 285 286 287 288 289 290 290 291
280 279 279 279 280 278 276 275 274 274 274 273 272 273 274 274 275 277 275 277 279 280 280 280 280 280 281 282 282 282 284 286 287 287 288 288 289 290
278 278 278 278 280 280 280 278 276 272 271 272 273 272 274 275 276 275 275 276 275 281 277 276 278 278 279 280 281 283 284 285 285 286 287 288 288 288
279 277 276 277 278 278 281 280 279 279 276 274 274 275 275 276 276 275 276 276 275 276 275 274 277 276 278 278 280 282 283 284 285 285 286 287 287 289
278 278 276 276 277 277 278 277 277 277 276 276 277 277 277 277 277 278 276 274 273 274 275 271 276 275 277 278 280 282 283 284 284 284 284 284 285 285
278 278 277 276 278 280 277 276 275 275 279 280 280 279 280 280 280 275 271 270 269 271 273 272 273 273 275 276 278 280 281 281 281 282 282 282 283 283
277 276 278 276 279 281 277 276 274 275 276 277 277 279 280 277 276 274 272 268 269 268 274 271 272 272 270 275 276 276 277 278 279 280 280 281 281 280
275 275 275 279 280 281 279 276 275 276 276 275 275 274 273 273 272 273 273 271 269 268 272 272 271 271 270 270 272 274 275 276 276 277 279 280 280 280
275 275 275 280 280 282 279 277 278 276 275 272 271 270 270 270 271 271 272 272 272 271 272 272 270 270 269 268 268 272 274 275 276 276 276 278 279 279
277 277 277 280 281 282 281 278 277 273 271 269 268 269 269 270 270 270 270 269 269 270 271 271 270 270 269 268 267 269 270 273 275 274 276 275 275 275
278 277 277 279 280 280 279 278 274 272 270 270 268 269 269 268 268 268 267 267 266 266 268 270 270 270 269 269 269 268 271 269 272 273 273 273 274 275
275 275 275 276 276 276 275 271 270 269 269 268 267 266 267 267 266 267 266 265 264 264 265 267 269 269 269 269 267 268 269 270 272 272 272 272 273 274
273 273 273 275 271 272 270 269 268 267 268 267 266 266 265 265 265 265 265 264 263 263 264 265 266 265 267 268 271 268 269 270 271 272 272 270 270 273
273 273 273 273 271 271 269 268 266 267 267 266 265 265 264 264 263 263 263 263 263 263 263 265 264 264 262 260 267 271 268 269 269 268 270 270 270 271
274 273 272 272 270 268 268 267 266 266 266 265 265 264 263 262 261 261 262 261 261 261 262 263 263 264 263 262 263 266 270 268 268 268 269 271 272 275
272 272 271 270 269 268 267 267 265 264 264 263 262 261 260 260 259 260 260 260 261 261 260 261 265 268 267 266 262 263 267 271 271 269 269 268 268 269
270 270 269 269 268 266 265 264 263 262 261 260 260 259 259 259 260 259 259 260 260 261 261 263 266 266 265 263 261 262 264 267 270 271 272 272 268 265
269 267 266 265 264 263 262 261 261 260 259 259 258 258 257 257 258 259 259 259 259 260 261 263 264 264 263 263 262 262 263 263 265 265 268 272 272 272
Wind_Speed
9 9 7 7 6 5 4 4 4 5 6 6 5 6 4 2 2 5 6 7 11 11 13 14 14 14 16 17 18 18 19 19 20 22 23 23 24 25
8 12 9 7 8 7 6 5 3 4 4 3 5 4 4 2 1 5 5 9 8 11 12 13 13 16 17 17 18 19 19 20 21 23 24 25 25 26
11 13 13 12 8 8 7 7 7 5 5 3 3 4 5 4 3 4 4 5 5 10 13 12 13 14 16 17 18 20 21 21 22 24 25 26 26 26
16 14 14 9 12 11 8 11 9 7 4 7 4 4 5 3 3 4 3 4 7 9 11 13 14 16 17 18 18 21 23 23 23 24 26 26 27 28
18 18 17 16 14 11 11 10 9 8 7 5 4 2 2 2 2 2 4 6 6 12 13 13 14 16 19 20 22 22 23 23 23 24 24 24 26 27
18 18 19 20 19 17 13 13 10 9 8 7 5 4 4 3 4 5 5 5 7 6 8 9 10 14 19 20 19 23 23 21 22 25 27 28 28 28
18 18 18 20 27 23 14 14 14 10 9 8 6 5 5 4 6 3 4 5 8 6 4 7 7 8 8 12 15 17 21 23 23 26 28 29 31 32
17 17 16 20 25 29 26 25 21 16 14 9 9 9 10 7 6 5 5 4 3 6 5 10 7 8 7 6 15 20 22 26 24 26 28 31 32 33
19 17 14 13 17 17 24 24 24 25 19 14 13 11 10 10 9 8 7 5 4 6 8 7 3 7 6 8 17 22 23 26 24 24 28 31 33 32
19 20 20 19 20 19 18 16 15 15 15 12 11 10 9 10 9 6 5 3 4 5 4 4 5 9 8 9 18 22 22 24 23 25 30 32 33 35
16 17 18 18 28 32 19 17 15 14 19 20 16 15 15 16 11 4 2 1 0 1 2 3 4 11 9 8 6 14 21 25 25 24 28 33 35 36
17 17 25 22 33 35 19 19 18 16 15 13 12 15 12 7 7 5 5 4 3 1 2 5 7 7 8 4 7 11 9 19 24 27 30 30 32 17
10 11 12 30 34 34 25 16 17 16 20 11 9 7 6 6 5 5 6 5 5 4 3 4 5 7 5 9 9 10 11 11 11 14 24 29 30 27
13 11 12 31 32 34 25 22 23 18 10 10 8 8 8 6 6 6 6 4 4 6 6 7 6 7 8 11 12 11 12 13 13 13 13 21 29 31
8 13 20 30 30 28 29 26 21 10 10 9 8 8 7 7 7 6 3 2 5 6 6 8 9 10 9 10 13 14 18 14 14 12 12 14 15 15
16 11 15 20 21 18 19 20 10 10 11 9 8 6 6 5 5 4 3 3 2 4 6 8 10 11 10 11 12 16 14 14 16 15 15 17 15 15
14 11 10 11 11 10 7 10 10 9 9 8 8 8 7 6 5 3 3 1 2 3 5 6 9 12 12 15 14 13 16 16 14 16 16 18 17 16
14 14 13 15 14 13 11 9 8 10 8 8 8 8 7 6 5 3 3 2 3 4 5 6 8 10 10 11 20 14 13 15 16 16 16 18 21 15
12 13 15 14 12 11 11 12 9 9 10 9 8 8 8 6 6 3 2 3 3 4 5 6 7 9 11 14 6 16 14 15 18 20 16 16 22 19
11 12 13 13 12 13 12 11 10 10 10 9 9 8 7 6 5 4 3 3 4 5 6 6 8 9 10 14 18 17 23 19 17 20 19 19 22 37
10 9 10 12 11 10 10 9 10 9 8 7 7 7 6 5 4 3 3 5 6 5 7 7 8 14 12 14 15 17 15 22 25 21 21 22 23 22
10 10 9 9 9 10 10 10 9 9 8 6 6 6 6 4 4 3 4 4 5 6 8 8 10 9 10 12 17 23 19 17 19 31 34 34 22 24
11 11 9 9 9 10 10 10 10 8 7 7 6 5 5 5 4 4 3 4 6 7 9 9 9 9 10 12 18 18 26 24 18 19 16 29 36 40
Wind_Direction
194 185 176 173 179 174 162 167 160 174 208 187 174 190 188 200 11 351 341 335 330 326 330 335 337 335 332 330 325 325 323 322 318 314 311 308 304 302
184 183 185 168 177 174 170 170 177 172 155 184 196 188 185 237 260 333 318 311 307 314 322 329 330 332 327 325 326 328 326 323 320 315 310 307 304 301
186 187 183 171 176 177 174 174 176 173 167 149 217 179 210 210 278 301 293 299 300 302 322 322 325 322 315 321 325 323 320 319 320 316 313 309 304 301
184 182 183 170 178 178 181 183 182 178 160 177 172 192 203 235 269 298 311 298 294 299 316 317 318 317 317 319 319 317 319 320 317 315 313 310 308 304
186 184 181 176 180 180 184 182 180 174 172 160 177 215 240 321 306 299 321 315 300 309 317 318 316 314 309 311 313 315 314 317 317 314 310 306 304 302
192 192 182 184 182 179 181 181 176 171 175 177 181 200 243 263 270 307 325 319 299 295 266 265 271 287 291 299 305 302 302 307 307 306 304 302 300 297
193 193 191 191 186 181 175 175 169 170 170 176 184 185 201 193 202 179 260 283 277 243 210 271 280 281 278 285 280 288 297 300 304 305 302 301 300 298
196 197 191 189 189 185 186 179 176 168 173 173 187 201 197 198 193 211 227 241 261 209 317 288 276 274 288 279 290 296 301 299 301 300 298 298 295 293
195 191 188 185 184 182 188 186 191 190 182 173 182 193 181 187 192 199 213 239 250 285 293 266 270 276 292 298 302 297 295 293 298 299 297 297 294 294
196 192 191 180 181 177 174 179 187 192 188 187 184 181 174 188 200 201 171 230 266 266 293 280 321 302 309 303 295 294 296 297 308 309 306 301 301 299
197 194 193 189 183 178 172 170 179 189 193 196 185 184 192 202 198 152 185 172 306 269 316 286 316 314 313 297 286 291 306 311 310 305 306 304 303 300
186 191 195 187 185 182 176 172 179 183 178 181 187 199 195 174 197 184 165 170 165 230 186 328 328 343 325 312 323 301 299 304 303 304 303 299 299 296
198 195 190 191 188 186 179 184 183 166 178 173 163 159 177 194 199 191 175 168 165 212 257 304 296 312 275 301 302 301 298 297 301 294 291 293 294 290
199 190 186 195 192 186 179 185 180 162 167 160 164 177 193 199 197 191 178 180 216 243 270 272 266 283 284 293 292 300 301 298 292 295 292 290 289 287
192 194 191 193 191 189 179 180 176 157 157 153 176 183 188 186 183 187 179 228 265 272 267 265 263 275 274 274 282 292 300 302 295 280 289 290 288 284
187 184 187 190 189 182 179 181 154 161 164 157 168 161 165 185 203 186 175 188 266 290 282 276 274 275 273 268 275 282 282 278 295 290 290 286 280 273
152 154 175 176 181 179 165 133 137 140 152 150 148 165 173 191 202 189 180 153 226 283 299 293 284 281 273 271 273 268 280 280 277 284 286 285 280 277
162 164 178 175 166 163 153 148 151 148 151 149 161 168 171 187 181 190 180 209 251 277 291 294 299 303 285 251 244 274 274 283 292 289 291 285 282 276
182 175 176 174 167 166 160 156 163 161 150 156 168 167 172 172 178 186 190 241 269 291 290 295 295 287 295 291 261 260 285 295 297 293 285 279 283 287
189 182 179 174 161 157 159 162 152 154 160 164 163 166 166 168 169 179 207 258 285 292 290 289 272 279 281 286 293 292 276 281 281 284 291 287 280 286
173 170 164 157 160 159 151 152 148 152 157 163 155 159 158 161 168 182 220 258 280 287 286 283 281 286 283 285 282 286 285 276 279 284 293 293 295 299
153 150 152 153 151 146 140 138 137 140 147 162 155 152 158 170 171 191 223 258 278 280 278 279 291 290 283 282 284 288 293 295 282 281 280 283 293 294
144 133 136 132 132 133 131 132 136 141 153 158 154 163 163 172 191 209 241 262 268 275 277 283 287 289 283 282 285 289 290 296 300 300 284 284 288 289